Simultaneous Nadir Overpasses (SNOs) Predictions

Prediction of SNOs between NOAA-19 and METOP-C Satellite Orbit:

Table of predicted SNOs for the next 14.0 days since TLE Epoch: 6/12/2020
Index Date (NOAA-19) Time (NOAA-19) Lat,Lon (NOAA-19) SZA (NOAA-19 ) Date (METOP-C) Time (METOP-C) Lat,Lon (METOP-C) SZA (METOP-C ) Distance(km) Time Diff (sec)
1 06/16/2020 13:06:32 80.02, 5.74 57.40 06/16/2020 13:07:38 80.02, 5.83 57.43 1.65 66
2 06/16/2020 13:57:32 -80.00, 173.23 122.60 06/16/2020 13:58:20 -80.02, 173.15 122.58 2.27 48
3 06/16/2020 14:48:32 80.01, -19.57 57.40 06/16/2020 14:49:00 80.01, -19.64 57.40 1.19 28
4 06/16/2020 15:39:33 -80.01, 147.60 122.61 06/16/2020 15:39:42 -80.01, 147.69 122.60 1.79 9
5 06/16/2020 16:30:33 80.02, -45.21 57.40 06/16/2020 16:30:22 79.99, -45.10 57.38 3.25 11
6 06/16/2020 17:21:33 -80.00, 122.29 122.61 06/16/2020 17:21:04 -79.99, 122.23 122.62 1.28 29
7 06/16/2020 18:12:33 80.00, -70.52 57.40 06/16/2020 18:11:44 79.98, -70.56 57.36 2.48 49




NCC Satellite Simultaneous Nadir Overpasses (SNOs) Prediction Service
